GFSSGP_850_spd_000.txt.gz
Wind_Speed
5 4 2 2 4 5 4 6 2 3 2 2 7 5 7 4 6 5 2 6 10 17 19 20 20 20 21 20 17 16 15 13 12 12 12 10 11 12 13 11 10 9 7 8 6 5 5 5 5
5 3 1 2 4 2 5 4 6 6 2 3 5 4 2 7 13 7 5 7 10 14 17 18 19 19 18 18 18 16 15 16 16 15 15 13 12 11 10 10 11 11 9 8 6 5 6 6 7
5 3 1 4 3 4 5 5 5 2 5 4 2 5 3 4 7 9 6 11 12 13 17 18 19 19 18 17 18 17 18 18 17 17 14 13 13 12 10 10 10 11 11 10 9 9 10 10 11
3 2 3 3 6 7 7 5 4 2 3 8 4 6 6 11 5 6 9 11 13 13 16 19 20 21 20 21 18 20 21 20 16 12 12 13 13 12 10 10 11 11 11 10 9 10 10 11 11
2 1 2 2 5 6 6 11 8 3 3 3 5 5 6 10 13 13 7 11 14 14 17 20 22 22 22 21 21 21 22 21 20 15 14 13 11 10 10 11 10 10 10 9 8 8 8 7 7
1 2 3 3 5 6 7 9 3 4 5 3 4 8 8 11 11 13 11 11 13 15 17 20 23 24 23 22 22 21 21 21 19 17 14 12 11 10 10 9 9 8 8 7 5 4 3 3 3
3 3 3 3 5 7 4 1 3 3 3 7 5 2 6 9 8 10 11 13 15 16 18 20 23 24 24 24 23 22 23 21 20 18 15 12 10 9 8 7 6 6 5 5 4 3 2 2 3
2 4 1 4 2 6 3 2 5 5 5 7 5 6 6 5 6 10 13 16 18 19 20 22 24 25 26 26 24 24 23 23 21 19 16 14 12 10 9 9 8 7 6 5 3 3 3 4 5
3 3 3 5 5 5 2 1 4 5 9 8 10 20 22 22 19 16 18 20 22 23 22 23 25 27 28 27 26 25 25 24 22 21 19 16 14 12 11 10 8 8 7 5 4 4 5 6 7
4 4 7 6 5 5 5 5 15 5 11 12 21 26 27 27 27 25 25 25 26 26 25 25 26 29 31 31 29 28 28 26 25 22 20 18 16 14 13 12 11 9 8 6 6 6 6 7 7
6 6 5 8 17 13 7 7 11 4 8 27 22 24 20 23 27 30 30 30 30 27 29 28 29 30 33 33 33 32 31 29 27 25 24 22 20 18 16 14 12 11 9 8 7 7 7 8 9
3 13 13 6 8 6 6 14 8 12 35 35 34 32 34 32 32 33 34 33 32 32 31 32 32 33 34 35 36 35 34 33 30 28 28 27 24 21 19 17 15 12 10 9 9 8 8 10 11
5 6 15 24 21 21 22 27 13 21 46 42 40 35 34 31 31 30 30 32 34 35 34 34 34 35 37 38 38 38 37 36 33 32 31 29 27 24 22 19 17 14 12 11 10 10 11 13 14
3 8 12 14 17 19 11 28 4 31 36 37 35 35 31 28 29 28 28 31 34 34 35 34 35 36 37 39 40 40 40 39 37 35 33 32 29 27 25 23 20 18 16 13 12 11 10 11 13
6 7 9 7 12 7 11 10 11 36 31 33 38 33 30 30 29 31 31 33 33 34 34 35 35 37 38 40 41 42 42 41 40 39 37 35 33 30 28 26 24 21 19 16 13 12 11 12 13
3 1 5 2 5 4 11 10 22 26 21 27 27 26 33 38 40 43 41 42 40 38 36 35 36 38 39 41 42 43 42 42 42 41 40 38 35 33 31 29 26 23 20 18 15 13 12 12 12
3 6 7 10 12 6 8 10 14 23 16 20 31 46 47 51 50 50 47 45 45 44 42 39 37 37 38 40 43 44 44 44 44 43 43 40 38 36 34 31 29 26 24 22 19 16 14 12 13
9 6 6 7 7 6 6 17 14 36 35 33 38 47 51 53 55 50 48 45 41 37 37 39 38 38 36 39 43 45 45 46 46 45 45 42 40 38 37 34 32 29 28 25 21 19 16 13 13
3 6 12 8 8 4 20 23 18 24 27 37 38 36 46 47 50 47 42 39 37 33 31 32 35 37 40 41 44 47 47 47 47 47 46 44 43 41 40 38 35 33 30 26 24 23 19 15 14
6 11 18 14 15 5 14 21 18 19 24 33 38 41 34 43 46 46 43 34 30 28 25 24 27 34 38 42 44 46 44 46 47 47 47 47 46 44 42 40 38 35 32 31 29 26 22 19 15
4 7 17 14 6 5 10 13 7 9 13 27 37 43 35 39 39 34 37 34 27 23 22 22 23 27 35 40 43 45 44 46 48 50 49 49 47 45 45 41 39 36 34 33 30 28 25 22 16
15 11 13 10 6 7 5 15 6 8 10 9 25 25 27 23 26 32 35 31 31 22 16 19 25 31 33 36 39 44 47 48 48 48 47 48 48 48 46 43 40 38 36 34 32 30 27 24 20
10 5 7 3 4 5 1 3 1 4 6 11 9 10 17 21 22 27 29 32 24 21 19 19 21 27 32 35 36 39 43 45 45 44 45 47 48 48 47 44 42 40 38 36 35 34 31 27 25
2 2 4 4 2 5 9 8 20 4 4 2 9 31 21 19 28 29 31 32 23 15 17 20 20 22 27 31 33 35 39 42 42 42 41 45 47 47 46 44 43 42 41 40 38 35 32 29 26
3 4 3 3 1 9 3 3 16 10 16 8 10 17 7 18 29 38 37 35 27 18 15 16 17 18 20 24 28 31 34 36 38 38 40 41 44 48 48 47 47 46 43 41 39 37 35 33 29
8 9 6 7 5 12 3 7 18 7 10 27 17 14 7 20 28 36 37 33 27 20 16 14 13 14 16 18 23 26 30 36 37 38 39 40 39 41 44 47 46 44 42 41 41 39 37 34 32
4 6 3 3 5 3 12 14 15 18 7 4 3 8 18 25 23 30 29 31 21 21 15 13 12 13 15 18 22 22 25 32 37 36 37 38 37 38 39 41 44 45 44 43 43 42 40 38 35
7 2 2 1 4 8 7 14 12 22 26 7 9 17 36 38 32 27 25 20 19 23 25 23 20 21 22 21 21 25 28 30 33 36 38 37 37 39 39 38 40 44 45 45 45 45 42 41 38
2 4 4 2 5 12 18 13 10 22 21 9 11 28 28 29 30 29 26 21 21 20 22 22 22 24 29 32 31 31 32 35 36 39 39 40 41 41 41 40 39 40 44 47 47 46 44 43 41
5 12 7 10 10 10 11 11 12 13 16 25 26 28 31 30 33 31 28 28 28 27 27 30 28 23 20 23 26 29 33 36 40 44 44 44 45 44 42 41 41 41 42 46 49 48 47 47 45

GFSSGP_850_spd_003.txt.gz
Wind_Speed
4 3 3 3 3 3 3 5 2 3 2 1 7 4 4 2 5 3 3 5 10 18 24 26 24 23 20 18 17 15 13 13 12 12 11 11 12 11 10 6 8 7 8 9 6 2 3 4 4
3 2 2 1 3 1 4 3 4 4 1 2 5 4 3 6 13 9 9 6 10 14 20 22 24 23 22 20 17 16 15 12 11 11 12 11 11 10 8 8 9 10 10 6 4 4 4 5 6
2 1 1 3 2 3 4 4 3 3 3 4 2 4 4 4 5 4 5 7 12 16 19 20 22 21 21 21 20 17 15 15 14 16 14 12 11 9 7 8 9 11 11 9 7 7 8 9 9
1 0 4 3 4 6 5 3 3 8 2 6 3 6 7 11 6 5 4 8 13 15 19 21 21 21 20 19 20 19 17 18 19 17 16 13 13 12 10 10 12 13 12 11 11 10 10 9 9
2 2 3 2 4 5 5 10 6 2 3 2 4 3 5 12 12 13 9 7 13 15 17 20 21 22 22 22 19 20 21 22 22 16 12 14 14 12 11 11 12 11 11 11 11 10 8 7 5
3 3 3 3 4 5 7 9 3 3 4 3 4 4 6 7 9 7 9 9 10 14 16 19 21 22 23 23 23 22 23 23 24 18 14 14 12 12 11 11 10 10 10 9 7 5 3 2 2
5 4 3 3 5 6 4 3 3 2 3 5 4 2 5 9 6 8 8 10 13 15 17 18 20 23 24 23 23 23 24 23 24 20 16 14 12 12 11 10 8 8 7 6 4 3 2 1 1
4 4 2 4 3 6 3 2 2 4 5 5 5 5 5 12 16 13 12 13 15 18 19 20 21 23 25 25 24 24 23 24 22 21 17 14 13 12 10 9 8 8 7 6 5 4 2 1 1
5 3 2 5 5 5 3 2 2 3 10 9 12 21 24 26 24 21 19 18 19 21 21 22 23 24 26 27 26 26 26 25 23 22 20 17 16 13 12 11 11 9 8 6 5 4 3 3 4
4 4 8 6 5 5 5 7 11 4 10 17 18 24 25 25 24 25 25 24 24 23 23 25 25 25 27 29 29 28 28 27 26 25 22 19 18 16 15 13 12 10 9 7 6 4 4 4 5
5 6 5 7 16 12 7 7 7 3 7 27 25 26 24 25 26 30 30 27 26 25 26 25 27 28 28 30 31 31 31 29 29 27 25 23 23 20 18 16 14 12 10 8 6 5 4 5 6
3 13 11 5 8 5 6 9 5 14 34 37 38 36 36 35 33 31 29 27 25 25 26 28 30 31 31 32 34 34 34 33 32 30 28 28 27 24 21 19 17 15 12 10 8 6 5 5 6
4 6 13 19 16 20 21 26 14 26 43 41 38 36 34 33 31 26 25 25 26 27 27 28 30 32 34 35 36 37 37 36 34 33 31 30 30 27 24 22 21 18 16 13 11 8 7 5 6
3 7 15 11 15 16 10 29 5 24 31 32 32 36 35 35 29 26 26 26 26 26 25 27 29 33 36 37 38 39 39 38 37 36 35 33 32 30 28 25 24 22 19 16 13 11 7 6 7
4 6 8 7 10 8 7 9 11 33 25 29 37 29 28 33 31 33 32 34 34 33 30 29 29 33 37 39 39 40 41 41 41 39 38 36 35 34 32 30 28 25 22 19 16 13 10 7 7
2 1 4 4 6 4 11 14 17 35 21 23 25 38 46 46 46 48 48 45 44 43 41 36 34 33 35 39 41 42 42 43 43 43 42 41 39 37 36 34 31 28 26 23 20 17 13 10 8
2 5 7 9 12 5 8 9 11 19 22 30 39 48 52 51 48 45 42 38 33 34 34 34 35 37 36 38 42 43 44 44 45 45 45 45 42 40 39 37 34 32 30 27 24 21 17 13 10
8 5 5 6 7 3 7 15 16 32 37 38 40 41 46 43 46 38 36 31 26 25 28 27 28 33 36 38 42 45 45 46 48 48 48 47 45 43 41 39 38 36 34 31 29 24 20 16 13
4 5 6 8 9 4 23 19 15 23 27 37 39 39 29 36 35 33 31 25 18 16 18 20 24 27 34 40 42 47 48 49 51 50 50 49 48 46 45 43 42 40 38 34 29 26 24 21 17
6 8 15 7 10 3 12 21 22 18 25 32 34 32 28 32 29 27 23 21 18 17 15 17 21 26 28 35 40 45 48 51 51 51 52 51 50 49 48 46 44 42 40 37 34 31 29 26 20
3 6 10 9 7 6 8 7 4 6 12 23 25 21 24 23 19 25 27 26 22 17 13 15 17 22 28 32 37 42 46 46 50 54 54 53 52 50 49 47 45 44 42 40 37 34 31 28 24
7 10 10 5 5 3 6 11 5 7 9 5 13 7 11 14 28 36 37 35 30 23 13 11 16 18 25 32 36 39 42 45 47 50 49 51 51 51 51 50 48 46 43 41 38 36 33 31 29
10 2 2 2 2 4 2 2 5 3 7 6 6 7 13 21 31 40 39 38 32 27 20 17 14 15 20 25 31 35 39 39 40 42 44 49 51 53 53 52 50 48 46 42 40 38 37 35 31
5 4 6 4 2 4 8 7 2 4 4 3 7 29 29 27 30 30 27 30 32 30 28 22 17 16 15 20 27 31 33 37 38 38 40 41 48 51 52 52 51 49 46 46 43 41 40 37 34
3 4 3 3 1 7 1 1 6 7 13 6 9 17 24 28 29 31 30 29 30 32 31 29 27 21 16 17 20 27 31 33 35 36 36 38 40 47 50 51 51 50 48 47 45 44 42 40 39
7 8 6 7 5 8 3 7 13 7 7 16 25 22 29 30 28 28 31 30 30 30 31 28 26 24 22 20 19 20 26 32 35 33 33 34 34 36 42 46 49 49 48 47 45 44 43 42 41
4 6 3 2 2 1 9 11 15 14 8 20 24 30 31 33 34 33 32 34 34 31 30 30 27 24 22 19 17 18 20 25 30 31 30 32 33 34 35 40 46 47 47 48 47 47 47 45 44
5 0 1 2 3 11 8 14 13 15 11 13 17 22 22 28 33 33 32 31 33 32 32 29 29 30 29 26 23 18 18 21 26 27 23 27 29 33 34 36 39 44 47 49 49 50 49 48 47
0 3 3 3 4 11 13 8 3 7 8 9 10 13 17 24 28 29 29 27 28 31 34 33 30 30 28 28 29 29 23 19 21 24 21 24 30 34 35 36 39 42 44 49 51 52 52 51 50
5 7 4 4 6 5 11 8 10 9 10 7 4 9 17 22 24 27 29 30 31 35 35 34 35 36 32 31 30 29 27 27 23 22 22 23 27 33 38 38 39 42 44 44 50 55 55 54 54

GFSSGP_850_spd_006.txt.gz
Wind_Speed
4 3 4 3 4 3 3 1 3 3 2 1 3 3 5 6 4 6 3 4 7 17 25 24 22 23 21 20 18 17 16 14 13 12 12 11 10 10 9 7 7 6 7 7 6 3 3 2 2
3 3 3 1 4 4 2 0 2 2 3 3 5 5 6 7 9 10 10 6 8 14 24 24 24 23 22 20 19 18 17 15 14 13 13 10 10 12 11 9 10 10 10 10 6 6 5 4 4
2 1 3 2 2 3 3 1 2 2 6 4 3 4 5 3 5 3 5 5 10 16 23 24 25 24 23 22 20 19 17 16 14 12 11 12 13 11 7 9 11 14 15 11 8 8 8 8 8
1 1 2 4 7 8 6 8 10 11 1 4 4 7 6 9 6 5 6 6 11 15 21 23 23 24 24 23 21 20 17 16 16 15 16 14 13 12 9 9 12 14 13 12 10 10 8 8 8
3 1 3 3 5 5 8 9 7 5 4 3 3 3 5 11 7 10 10 7 9 14 18 20 23 24 23 23 23 21 20 19 19 21 16 14 13 12 11 11 12 12 12 10 11 9 8 6 5
2 1 3 5 4 5 8 6 4 5 3 2 4 5 5 6 4 6 6 8 10 14 18 19 21 23 24 23 22 23 23 23 24 23 15 15 13 11 10 11 11 11 10 10 8 6 4 3 2
2 2 3 5 7 5 2 1 3 4 3 5 3 5 6 9 6 9 10 9 11 14 18 20 21 22 24 25 25 22 23 25 25 27 18 15 12 11 11 11 11 9 9 7 6 5 5 4 3
2 2 2 4 3 5 2 2 2 5 6 6 5 4 6 8 16 17 14 12 14 16 18 21 23 24 26 27 27 26 25 26 26 26 21 16 14 14 14 12 11 10 9 9 8 7 5 4 4
4 4 5 4 4 2 3 4 3 6 11 9 12 18 17 22 22 21 19 17 18 20 22 24 24 25 27 28 28 27 27 27 26 26 23 18 17 16 15 14 12 11 11 11 10 8 6 5 4
5 4 5 4 5 7 8 6 9 7 17 22 18 20 19 20 22 24 24 24 24 23 23 25 26 26 27 29 30 29 30 29 28 27 26 23 20 19 17 16 14 13 12 11 9 7 6 5 4
5 7 7 9 15 10 10 12 7 11 17 17 20 24 19 24 28 28 29 29 27 24 27 26 28 29 29 30 31 33 33 32 32 30 28 26 23 23 22 20 18 17 15 14 12 10 8 6 5
6 14 13 9 9 5 9 9 13 18 33 31 29 26 28 27 25 26 27 27 27 25 26 27 30 32 32 33 33 34 36 35 35 32 30 29 28 27 26 23 22 20 19 16 14 12 10 8 6
9 12 13 16 13 15 17 27 20 27 29 32 28 27 28 28 28 25 26 25 24 25 26 27 29 33 35 36 36 37 38 38 37 36 34 33 32 31 29 27 25 24 21 19 16 14 12 9 7
3 8 14 12 18 16 11 29 11 16 15 23 23 26 25 23 24 30 32 30 26 24 25 26 28 31 36 39 40 40 40 40 40 39 37 36 35 34 33 31 29 27 24 22 19 17 14 11 8
4 11 15 17 13 8 9 14 16 25 13 20 27 24 27 34 33 36 37 36 36 38 36 35 32 31 35 38 41 42 43 43 43 41 40 39 38 38 36 35 33 31 28 25 23 20 17 14 11
5 4 10 7 5 4 9 20 21 18 11 21 28 34 35 35 33 29 27 28 23 27 32 31 34 35 36 38 41 44 46 46 45 45 44 42 42 41 39 39 36 34 32 29 26 23 21 17 13
5 11 14 16 4 3 10 14 18 25 26 37 36 36 33 31 30 22 21 22 18 20 24 26 28 32 36 38 42 45 47 49 47 48 48 46 46 44 43 41 39 37 34 32 30 27 24 20 16
15 13 11 12 14 11 17 20 21 33 31 35 37 35 26 24 21 23 18 15 16 16 18 21 24 27 31 36 41 46 49 51 51 52 51 49 49 47 46 44 42 40 39 37 33 30 27 24 21
10 14 18 23 20 16 20 19 18 31 30 33 32 22 20 18 17 19 20 17 14 13 13 16 19 21 29 33 38 43 49 51 53 54 53 52 52 51 49 47 44 44 44 40 37 34 31 29 25
13 14 21 16 15 3 14 19 23 18 17 19 18 17 13 13 19 25 28 25 21 19 17 15 14 16 22 27 31 34 39 45 48 53 57 56 55 54 51 50 49 48 46 43 41 39 36 34 29
13 14 17 16 13 13 11 13 5 9 13 7 6 5 11 18 23 27 29 28 26 24 20 15 15 15 15 19 25 28 35 38 40 45 48 54 55 55 53 52 51 50 48 47 45 44 42 38 34
13 10 15 11 6 10 8 11 8 7 9 3 10 19 16 20 21 22 25 30 32 29 25 20 14 12 12 14 18 24 26 32 35 39 41 46 49 53 55 54 53 51 50 50 48 45 43 41 38
5 2 2 1 6 7 3 7 1 2 2 7 14 17 18 19 21 24 26 29 31 32 31 24 22 19 15 12 12 16 19 21 24 29 31 33 37 49 55 55 56 54 53 52 49 47 46 43 40
4 1 1 0 3 8 4 7 3 3 3 6 13 15 16 18 20 23 25 30 35 32 29 29 28 24 19 15 13 11 14 18 22 25 28 30 30 33 48 55 57 56 55 54 51 48 46 44 44
5 3 7 6 6 12 4 6 8 7 8 7 10 13 19 19 22 27 32 31 31 32 31 30 28 28 25 20 15 11 11 13 19 19 22 24 28 30 33 47 56 57 56 54 53 50 49 48 48
9 7 6 8 15 17 6 10 8 11 15 16 17 17 18 20 22 26 26 27 28 29 31 31 29 28 27 27 23 18 16 14 14 16 20 21 24 26 28 32 47 55 56 55 54 52 52 51 50
6 7 3 7 6 8 16 23 17 9 11 12 14 14 17 19 18 19 21 23 25 26 28 28 29 29 28 27 27 26 21 17 17 18 19 20 21 23 26 29 32 44 54 55 55 55 53 51 50
8 3 8 5 8 20 17 20 13 7 5 7 9 11 12 13 15 16 17 18 20 21 22 24 26 27 28 28 28 28 27 25 20 19 19 20 19 20 23 27 31 34 43 52 55 57 54 54 53
10 8 6 5 6 7 10 13 7 3 4 5 5 8 12 15 16 16 16 15 18 21 24 24 23 26 28 28 28 26 27 28 25 24 21 21 23 22 22 24 28 32 38 43 53 57 57 56 56
4 12 14 10 11 13 14 18 2 3 6 6 4 2 3 7 12 13 14 17 18 20 23 23 25 25 25 25 24 25 26 26 27 28 27 25 20 24 27 26 28 30 35 39 46 54 61 60 57

GFSSGP_850_spd_009.txt.gz
Wind_Speed
4 5 6 5 5 3 3 3 4 4 2 5 4 6 10 12 8 5 3 5 6 10 19 20 20 21 20 19 17 15 14 13 11 10 9 8 7 7 7 5 4 6 7 5 3 3 4 3 1
3 4 4 5 4 5 7 4 2 6 7 7 6 6 6 4 4 4 4 7 5 8 18 20 22 21 20 20 18 17 15 14 13 12 11 10 10 10 11 10 8 9 10 8 7 6 5 4 4
1 1 5 3 3 5 5 3 4 6 7 5 5 3 7 5 3 3 7 6 6 10 16 20 22 22 22 21 20 18 17 16 15 14 12 11 11 14 12 12 13 13 14 10 9 8 7 7 7
2 2 4 5 5 6 4 8 10 9 1 2 3 8 3 4 2 5 8 8 6 11 17 19 20 23 23 23 21 19 19 18 16 14 12 15 12 11 8 9 12 14 14 9 11 10 10 8 7
1 3 4 4 6 3 6 8 7 7 4 3 2 5 7 6 4 6 8 7 6 11 16 20 19 22 23 23 23 21 20 18 17 17 17 18 13 12 10 10 12 12 11 11 10 9 8 7 5
4 4 5 5 5 4 3 3 4 4 4 3 4 9 6 6 3 5 9 8 8 11 14 20 20 23 23 23 23 22 23 21 19 22 21 20 14 11 10 11 11 11 11 10 9 8 5 4 3
5 4 8 9 9 5 0 1 3 6 7 8 4 8 7 4 7 8 12 10 10 12 14 19 21 23 24 24 24 24 24 24 24 24 22 19 17 13 11 12 12 11 11 9 8 6 4 4 3
4 4 6 4 7 9 2 1 3 7 14 6 5 5 6 4 14 18 16 14 13 14 16 19 21 23 25 26 27 26 25 26 27 26 25 23 19 15 13 13 13 12 12 10 9 7 6 5 4
2 5 7 9 7 4 4 7 3 8 14 17 12 15 16 19 21 20 20 18 17 18 19 21 22 24 25 27 29 29 29 27 28 28 28 26 21 19 17 16 16 14 13 12 11 10 8 7 6
6 7 9 5 10 10 13 13 14 13 16 21 18 18 14 15 21 20 18 17 19 20 21 22 24 25 25 26 27 31 33 32 31 31 32 30 25 23 21 20 18 17 15 14 13 12 10 9 7
5 9 12 12 15 16 16 18 19 16 17 20 19 20 20 20 21 20 20 19 19 18 20 23 25 27 28 28 29 31 33 35 35 32 32 31 28 26 23 23 22 20 19 18 16 14 12 10 8
9 16 17 19 14 9 17 21 18 18 27 27 28 25 25 22 21 19 21 19 18 19 21 24 24 28 30 31 32 32 32 36 37 35 33 31 31 29 26 26 24 23 22 21 19 17 14 12 10
13 16 18 17 18 18 20 26 21 27 28 28 24 22 22 23 23 20 19 20 20 22 23 24 26 27 31 34 35 35 35 36 35 35 35 36 33 31 29 29 27 26 24 23 20 18 16 14 12
12 14 20 21 18 18 19 25 20 27 23 23 21 25 24 23 22 23 20 22 26 28 26 24 25 26 29 34 36 37 37 37 37 37 38 37 35 34 33 32 31 29 27 26 24 21 19 17 14
10 13 17 21 22 9 7 16 12 16 12 18 24 27 28 27 26 25 26 27 25 24 24 26 28 29 31 32 36 38 39 40 41 40 40 38 37 37 36 35 35 32 30 29 27 24 22 20 17
8 10 10 7 1 4 6 20 14 12 18 30 32 30 25 25 22 19 17 17 17 18 18 20 25 30 34 34 35 38 40 42 42 42 42 42 40 40 40 39 38 36 34 32 30 27 25 23 20
12 12 15 12 11 4 10 13 19 30 29 33 31 24 22 20 14 14 14 12 12 12 13 14 20 23 27 33 33 34 36 40 41 42 43 44 42 42 43 42 40 39 37 36 34 31 28 26 23
15 18 18 20 21 14 18 18 19 26 28 31 27 20 13 10 14 16 17 15 12 8 9 11 12 16 21 24 29 31 30 36 37 38 41 41 42 43 44 43 42 41 39 39 37 35 32 30 26
20 19 20 21 19 17 17 16 17 26 27 21 14 9 9 14 15 19 20 17 15 15 13 9 7 10 13 17 21 24 28 28 32 36 37 39 40 42 43 45 45 44 42 40 39 37 35 32 30
15 17 19 17 9 1 13 18 21 16 22 9 9 10 14 13 17 20 23 25 24 21 19 13 8 4 8 10 11 14 14 20 21 26 33 37 39 43 43 46 47 46 43 42 41 40 38 35 34
16 16 18 17 14 11 11 15 13 10 18 10 16 16 16 16 17 21 24 26 26 27 27 24 15 8 3 3 7 11 14 18 21 23 24 29 32 35 40 43 47 48 47 46 45 44 43 42 39
16 11 11 11 6 10 4 11 12 8 8 14 14 15 16 16 16 17 21 27 31 30 27 27 24 17 11 6 3 4 10 10 11 14 20 25 28 31 39 40 44 49 49 49 48 46 46 44 44
6 1 4 5 10 12 11 7 8 5 8 13 11 12 14 14 16 18 19 21 24 27 30 29 29 26 23 17 10 5 7 7 8 14 15 16 19 21 27 38 41 49 52 51 51 50 49 48 46
2 6 10 7 5 9 14 12 7 1 6 11 10 11 10 11 14 16 16 19 21 23 25 26 26 29 30 27 21 15 11 8 8 10 14 13 15 18 19 26 34 43 50 52 52 52 51 50 49
7 8 8 8 9 13 6 6 13 4 8 8 10 9 8 10 11 13 15 16 16 19 22 26 29 30 29 26 25 24 20 15 12 11 10 12 13 16 16 19 24 30 43 49 51 52 52 51 51
8 8 8 11 13 14 3 8 8 13 14 13 12 10 7 8 10 14 14 14 16 20 24 25 28 27 26 24 24 24 24 24 20 17 15 13 14 15 17 18 20 23 27 40 48 51 53 53 51
3 6 6 6 9 9 13 20 19 14 11 9 10 9 7 8 11 12 12 13 16 19 22 24 22 22 23 24 23 23 23 22 23 23 20 17 15 16 16 18 19 20 22 26 36 46 51 53 52
7 1 5 3 4 7 13 20 15 13 8 7 5 6 8 10 10 11 12 14 15 17 18 17 18 20 21 20 21 21 21 21 21 22 22 23 21 16 16 16 18 21 21 23 28 36 44 50 52
7 6 11 12 10 13 17 14 11 6 2 6 5 3 4 5 7 8 8 9 10 12 15 15 16 18 20 21 21 21 22 22 21 21 21 22 23 24 22 18 17 18 22 24 26 30 34 44 51
10 15 16 13 8 11 12 13 13 2 5 5 6 5 2 2 5 6 6 7 8 10 12 13 16 18 21 22 23 23 22 22 23 24 24 24 25 24 23 23 22 19 20 22 27 31 32 35 43

GFSSGP_850_spd_015.txt.gz
Wind_Speed
3 3 4 4 4 5 3 3 4 5 3 2 2 1 2 3 3 3 1 2 4 7 9 19 22 21 19 16 14 13 12 10 10 9 9 8 7 6 4 4 4 5 5 3 2 2 2 2 3
2 2 3 1 4 4 4 3 4 4 3 3 1 1 1 2 4 4 2 3 6 8 9 17 21 21 21 19 16 15 13 12 11 10 10 9 8 7 7 6 7 9 9 5 3 1 1 0 1
3 1 3 3 3 3 2 1 2 4 4 3 2 2 1 3 3 2 2 2 5 7 9 15 21 21 21 20 18 16 14 13 12 11 9 9 10 10 9 9 10 12 11 8 6 4 3 3 4
1 1 1 4 2 1 3 3 5 3 2 3 1 4 1 2 2 2 4 2 4 6 8 12 19 22 22 21 20 18 16 15 13 13 12 11 11 12 12 12 13 13 12 10 8 7 7 6 6
3 1 3 2 4 3 3 7 4 2 1 4 3 3 7 5 4 2 6 6 3 5 7 11 15 21 22 22 22 20 18 17 16 15 14 12 12 14 8 11 12 12 12 9 10 8 8 6 6
2 1 4 1 4 1 3 6 2 4 3 1 0 1 3 4 4 3 5 8 5 6 7 10 14 17 21 23 23 22 21 19 18 16 15 14 15 14 7 10 12 13 13 10 9 9 7 6 6
1 3 3 3 4 3 2 2 3 3 7 2 1 2 4 5 4 5 8 10 8 8 9 10 13 16 19 22 23 23 23 22 20 18 17 18 19 16 13 9 12 12 11 11 10 9 8 7 7
3 4 2 3 3 2 4 2 2 4 5 2 4 2 2 6 13 12 14 14 11 12 13 12 14 16 19 22 24 24 24 24 23 21 21 21 22 20 17 12 13 12 11 11 9 8 8 9 8
1 4 2 3 5 2 1 4 1 5 10 12 9 15 20 20 21 16 18 15 15 15 16 17 16 17 19 22 24 25 25 25 25 24 24 23 25 23 20 15 14 14 13 11 10 10 11 10 9
3 3 5 1 1 3 9 5 11 8 16 26 23 15 12 19 14 18 18 19 19 18 17 16 17 18 19 21 24 26 27 27 27 27 26 27 27 26 23 21 18 17 16 13 12 12 12 12 11
4 5 2 7 11 8 5 12 9 7 3 23 25 26 23 21 20 18 19 22 25 21 17 18 18 18 20 22 22 25 28 28 29 30 30 29 29 29 27 25 23 21 20 17 16 14 15 14 13
3 10 9 7 17 7 4 8 12 14 22 21 25 24 24 21 13 17 20 20 15 15 18 19 18 19 20 21 24 24 25 27 30 30 29 30 31 30 31 28 26 24 22 20 18 18 19 17 14
4 4 8 13 18 19 15 14 10 27 22 17 17 19 17 15 17 15 15 11 17 16 16 17 19 20 21 21 22 26 27 26 26 28 30 30 32 30 30 28 28 26 24 23 21 21 21 19 17
4 6 11 13 25 17 9 9 3 20 18 15 13 17 20 14 5 5 8 3 7 10 15 14 16 17 18 22 21 23 27 27 27 27 28 33 32 31 32 32 26 27 27 25 24 23 23 22 21
4 4 8 17 10 7 5 4 6 11 18 27 25 22 9 2 3 5 5 6 7 7 7 12 14 13 14 20 20 20 21 26 28 28 26 25 30 32 33 34 29 27 27 28 27 27 27 26 24
3 1 2 6 4 2 3 7 9 20 16 31 25 16 3 6 10 9 8 9 11 14 15 10 9 12 9 13 17 19 20 21 24 25 24 25 26 28 31 33 31 29 30 30 29 29 29 28 27
2 3 6 7 2 3 3 6 15 21 22 26 21 6 11 13 13 13 11 10 8 7 5 8 13 9 9 10 12 16 16 17 18 21 20 22 23 25 29 31 30 31 31 32 30 30 30 30 30
5 4 4 4 4 3 4 9 8 23 31 8 7 16 16 17 19 15 12 13 12 10 8 3 3 7 9 9 10 13 14 11 13 16 18 20 23 25 28 29 30 31 31 33 33 32 32 31 30
2 3 4 5 9 2 8 6 9 19 27 9 18 19 17 19 17 17 18 19 19 17 15 12 5 2 4 6 8 11 13 12 9 13 15 18 20 22 24 26 28 30 32 33 33 34 34 33 31
6 5 6 5 5 1 7 9 9 16 10 10 26 20 18 16 16 18 20 21 23 24 24 20 16 10 7 4 3 1 4 8 9 9 14 15 17 20 21 22 25 28 30 33 34 34 36 36 36
4 5 4 8 5 3 3 7 8 3 19 23 18 19 17 17 17 17 18 21 23 27 28 27 25 22 19 15 8 5 2 6 9 8 11 12 14 17 20 21 22 25 29 31 33 35 37 38 40
4 5 5 5 2 4 3 6 6 4 7 6 15 18 17 16 16 16 18 20 22 24 22 23 23 23 23 21 19 17 14 8 5 4 7 10 14 16 17 19 20 22 26 29 30 32 35 38 42
8 3 2 2 2 3 3 1 7 9 4 6 10 16 16 15 14 15 15 16 17 17 18 18 18 19 19 18 17 16 15 11 7 7 9 8 8 9 10 14 20 21 23 25 27 30 33 37 41
5 2 3 4 3 2 7 7 5 5 8 6 12 19 17 14 12 12 12 13 14 14 15 16 16 17 17 16 15 14 13 12 9 9 8 7 7 8 10 10 12 12 19 23 26 29 31 33 37
3 5 2 1 0 6 5 2 8 4 5 10 15 21 17 11 11 9 9 10 12 13 14 14 14 14 14 12 12 12 13 12 13 14 15 14 11 9 10 13 13 14 15 17 23 27 30 32 35
5 6 4 5 3 4 5 5 4 4 19 25 22 19 15 11 8 6 6 7 8 9 10 10 11 13 12 12 13 14 13 13 13 14 15 15 16 16 16 15 13 13 16 18 20 23 26 31 34
4 4 2 3 1 2 4 5 2 5 7 16 19 15 11 9 6 3 3 5 6 5 6 9 12 12 12 13 13 13 12 13 15 15 15 16 17 18 19 19 18 17 16 16 18 21 23 26 31
2 5 2 2 2 4 5 5 5 5 7 6 11 14 10 8 7 4 1 2 3 5 7 10 10 11 12 11 11 12 12 12 13 15 17 18 19 20 22 23 23 22 20 20 20 20 21 24 27
2 2 3 3 4 4 2 5 3 6 8 9 11 14 13 11 8 6 5 3 2 4 5 6 8 9 11 11 12 12 12 14 14 16 17 20 22 24 26 27 27 27 26 25 24 23 23 23 23
5 5 4 3 5 3 4 8 4 8 10 19 17 16 15 15 14 12 7 6 3 4 3 4 6 8 11 12 13 15 17 19 21 21 22 23 25 25 27 29 30 31 31 30 29 29 27 28 27

GFSSGP_850_spd_021.txt.gz
Wind_Speed
4 4 5 1 4 5 2 0 1 2 2 1 1 2 2 2 3 3 2 0 1 4 11 18 19 17 17 16 14 13 11 8 7 7 6 6 6 5 3 2 3 5 5 1 2 3 2 2 2
3 4 2 2 5 4 4 4 1 1 2 2 2 2 1 2 1 2 2 3 2 3 6 16 18 17 18 17 14 12 11 9 8 7 7 6 6 5 4 4 4 5 3 2 1 2 1 1 1
3 3 2 4 4 3 4 3 2 3 2 3 2 1 1 2 1 2 3 3 2 2 6 10 18 18 17 16 15 13 12 10 9 9 8 8 8 7 6 6 5 7 8 5 4 4 3 3 3
2 2 5 5 2 2 2 2 2 1 2 4 4 2 2 2 2 1 4 6 4 2 5 7 14 19 19 18 17 15 14 13 12 11 10 9 9 8 8 6 6 9 11 11 8 7 6 6 7
3 3 4 3 2 3 2 1 2 3 2 3 4 4 6 4 3 1 2 7 7 3 4 8 11 17 21 21 21 19 17 16 14 13 12 11 11 10 8 8 9 8 9 9 9 9 8 8 8
3 3 5 1 3 4 3 1 1 3 3 2 2 6 5 5 3 3 4 7 7 5 4 7 10 13 18 22 22 21 20 18 16 15 13 12 11 12 8 5 8 10 10 9 8 9 9 9 9
5 4 3 1 3 4 3 3 2 2 2 1 2 3 4 8 7 6 7 7 9 7 6 7 9 12 16 21 22 22 21 19 17 16 14 13 12 14 9 9 9 9 12 13 10 9 9 8 8
3 4 2 1 1 1 5 4 2 2 1 1 1 2 3 12 8 10 10 8 10 10 8 8 10 12 14 17 22 23 22 21 19 18 17 15 14 18 15 12 11 11 11 13 11 9 9 8 8
2 4 1 2 2 2 6 6 2 7 5 6 6 6 9 12 13 11 12 11 12 12 11 11 10 12 14 15 17 21 22 22 20 20 18 17 17 20 19 15 14 13 12 12 11 10 10 10 9
4 3 6 4 3 2 5 2 6 5 12 4 10 8 8 10 10 9 13 15 15 14 15 14 13 12 13 14 16 19 21 22 23 21 19 19 19 21 22 18 17 17 15 14 14 12 11 12 11
3 4 5 4 6 3 3 4 2 2 6 7 12 10 7 6 7 9 9 11 13 14 15 16 16 15 14 13 14 17 20 22 23 23 20 21 20 21 22 21 19 19 19 17 16 15 13 14 13
0 5 5 2 5 3 4 4 6 7 8 11 5 5 6 6 6 6 8 9 9 10 12 15 16 15 15 15 14 13 16 19 22 24 24 23 21 22 23 23 22 21 19 19 18 16 15 16 16
2 4 6 12 14 11 10 12 8 20 14 4 2 6 5 4 5 7 8 7 9 11 14 16 16 15 15 15 15 13 13 13 16 21 23 25 25 22 23 23 23 22 21 20 19 18 17 18 19
2 5 10 12 20 12 6 3 1 3 4 2 2 8 9 5 4 4 6 8 9 10 12 13 15 17 17 17 15 14 12 10 9 11 13 17 21 23 21 24 24 24 23 21 20 19 20 20 20
2 5 7 12 6 5 6 0 7 8 6 3 4 4 4 6 7 7 8 10 11 12 12 12 13 14 15 15 14 13 13 10 7 6 8 10 14 17 20 20 22 23 24 25 23 19 20 22 23
3 3 4 3 3 1 6 8 7 6 4 1 3 2 0 3 5 6 6 7 9 11 9 8 7 8 9 10 10 12 12 9 8 8 8 10 14 16 17 19 22 21 23 24 24 22 21 21 23
4 3 4 8 3 2 2 6 9 6 4 4 5 4 3 4 5 6 7 7 6 6 6 6 5 1 2 5 6 8 9 8 8 8 9 10 12 13 14 16 16 18 21 22 23 24 22 24 25
5 4 4 6 2 2 3 8 9 22 8 7 8 7 7 8 11 10 9 8 7 6 6 7 7 8 6 4 3 5 7 6 5 7 8 10 10 10 10 11 12 14 17 17 21 20 21 24 25
4 4 5 4 4 1 7 6 12 13 2 9 11 11 11 12 12 12 12 12 11 11 11 11 9 9 5 5 5 5 5 6 3 0 3 6 9 11 12 10 11 11 14 15 16 17 18 21 23
2 1 7 5 4 6 7 8 10 4 1 6 15 13 14 15 13 15 17 17 18 19 19 19 18 15 13 11 9 9 7 7 6 3 4 5 6 8 10 12 15 16 15 16 18 16 18 19 20
4 7 3 6 4 3 4 6 7 3 10 14 14 15 14 14 15 15 16 18 19 21 21 20 21 20 19 16 12 9 7 7 4 1 3 4 5 6 9 11 12 13 15 18 18 18 17 19 21
5 8 8 7 3 5 3 5 5 5 4 6 14 15 15 14 14 15 15 15 16 19 18 18 18 18 19 16 14 13 13 10 10 8 8 7 6 5 6 8 10 12 14 14 15 19 20 20 20
6 2 5 2 2 2 3 2 6 5 3 5 10 14 14 13 13 14 14 14 15 15 15 16 16 17 17 14 14 14 14 15 13 12 9 9 9 8 8 8 7 8 9 12 15 16 18 21 24
4 4 6 4 2 1 9 8 3 4 2 5 11 16 17 16 14 13 12 12 13 13 13 14 15 18 17 15 15 13 12 11 8 9 9 10 10 10 11 13 13 13 12 11 12 13 14 18 21
3 6 2 3 2 6 1 2 7 1 2 6 18 24 19 15 13 13 12 11 11 10 11 11 11 11 9 7 6 6 6 6 7 9 10 9 10 12 13 14 15 15 15 16 16 16 15 14 15
7 8 6 7 3 4 1 6 5 1 2 8 28 26 21 18 15 13 11 9 7 7 8 6 4 4 3 1 1 2 2 4 6 7 9 11 13 14 14 14 15 17 18 18 19 19 19 18 18
5 4 4 5 3 2 4 4 0 2 4 11 19 22 22 20 17 14 10 7 6 5 4 2 1 2 3 2 2 2 2 2 3 5 6 9 10 11 13 15 16 17 19 20 21 22 23 23 23
3 5 3 2 2 4 4 6 5 7 7 7 11 23 21 19 17 15 13 11 9 8 7 4 3 3 3 3 2 2 3 4 6 8 10 12 14 15 17 19 21 22 23 24 25 26 27 29 29
2 2 3 3 4 5 2 7 4 7 9 13 19 25 23 22 18 16 15 14 13 11 8 6 5 4 3 1 1 3 5 7 9 12 14 16 18 19 21 22 24 26 28 31 33 34 36 37 36
2 6 7 6 7 3 2 12 3 3 12 19 21 24 22 19 17 17 18 18 17 14 10 8 7 6 4 3 3 5 8 11 13 16 18 20 22 22 24 26 29 30 32 35 38 41 41 43 44

GFSSGP_850_spd_024.txt.gz
Wind_Speed
3 3 3 1 4 5 1 1 1 3 2 2 2 2 2 2 3 2 6 2 3 4 13 15 14 15 15 13 12 11 8 6 4 2 2 3 2 1 1 2 3 2 7 4 4 4 4 3 2
3 3 2 2 5 4 4 4 1 1 1 2 2 3 4 1 2 2 4 3 4 2 8 15 15 14 14 14 13 11 9 7 5 4 4 4 4 3 2 1 2 4 4 3 2 4 3 2 1
3 3 1 4 4 4 3 3 2 2 3 3 2 3 2 1 4 3 6 6 4 1 4 11 16 15 14 14 12 11 10 8 7 6 6 6 5 4 4 4 3 3 5 7 4 3 3 3 4
4 2 5 5 2 1 1 2 3 2 2 5 4 2 1 2 1 2 6 8 7 3 2 5 14 16 15 15 14 12 11 9 8 8 7 7 7 4 5 5 2 5 8 9 8 6 5 6 7
4 3 4 4 3 3 3 1 1 2 1 3 3 2 4 3 0 2 4 8 9 5 1 5 7 14 16 16 16 14 13 12 10 9 9 7 7 7 7 5 5 5 6 8 6 6 7 7 8
3 3 5 2 2 3 2 2 1 2 3 3 3 5 3 7 2 2 4 5 8 8 4 3 6 9 14 18 18 17 16 15 13 12 10 10 9 8 6 5 4 6 9 10 9 7 7 8 8
5 4 4 4 1 1 1 3 2 1 3 1 3 3 2 8 5 4 6 5 3 3 2 3 6 8 11 15 19 20 19 17 15 13 12 11 10 10 7 6 7 8 9 10 11 7 7 8 8
3 5 3 1 1 1 2 2 1 1 1 1 2 2 2 9 3 4 4 6 5 5 5 5 6 9 11 13 17 19 20 19 18 16 14 12 12 13 10 10 9 10 10 11 11 8 8 7 7
2 4 2 4 6 2 1 3 1 4 2 5 3 4 6 10 8 6 4 6 8 8 8 8 9 9 10 12 14 16 19 19 18 16 15 14 15 16 15 12 11 11 12 11 12 11 10 9 7
4 3 6 3 2 2 3 2 5 4 8 2 7 4 8 9 10 8 9 10 10 10 11 11 11 11 11 12 13 14 16 17 17 16 15 16 15 16 15 14 13 13 13 13 13 12 10 10 10
2 3 3 3 6 2 2 3 1 3 3 2 9 8 6 5 3 3 4 5 7 9 9 12 13 13 12 12 11 11 14 15 16 17 19 18 17 17 15 16 17 16 14 14 15 13 11 11 12
1 3 4 3 3 2 3 2 2 7 2 6 2 3 6 6 6 6 7 7 8 7 7 9 12 15 16 15 13 11 10 11 15 18 19 19 19 18 17 17 17 18 18 17 16 16 13 13 13
2 2 3 7 10 12 10 8 5 15 11 8 3 2 3 4 5 7 7 7 8 10 11 12 12 14 16 18 16 14 10 9 9 11 18 19 18 18 17 16 18 19 18 19 18 17 15 15 15
1 5 11 11 13 10 6 2 1 2 8 6 3 5 6 6 5 6 8 8 8 9 10 11 13 14 12 15 17 14 11 7 4 3 5 9 14 17 18 19 16 17 18 18 19 18 19 17 16
2 4 7 8 5 4 3 1 5 8 5 3 4 3 5 7 8 8 7 8 9 11 13 11 10 11 9 8 13 12 10 7 4 3 3 5 6 9 11 14 16 15 15 18 20 20 19 18 17
4 4 4 3 3 1 4 7 3 9 6 3 2 1 3 6 9 8 7 5 5 6 6 6 6 3 1 3 9 10 8 6 7 7 7 8 8 10 12 14 13 15 17 16 17 18 19 19 18
5 3 4 8 3 2 3 7 2 3 2 2 1 2 2 2 3 5 6 6 5 4 5 5 7 7 7 8 8 8 8 6 6 5 5 6 8 8 8 10 11 11 12 14 17 18 18 18 16
6 4 4 6 1 1 1 8 10 5 7 5 7 6 4 3 4 5 5 5 6 5 5 6 8 11 11 11 10 10 11 8 3 1 2 3 5 8 9 9 9 9 10 12 9 10 11 12 14
5 5 6 3 3 2 6 6 12 16 6 11 10 9 7 7 9 8 8 8 8 8 8 9 8 10 11 10 11 13 10 9 5 4 2 2 4 6 8 8 9 10 10 10 11 13 14 15 16
3 4 6 5 3 4 7 8 11 2 1 6 14 13 11 12 10 11 13 13 14 15 17 16 16 14 12 11 12 11 11 9 6 4 2 2 4 6 6 7 8 9 9 10 12 17 19 18 18
5 8 4 7 3 3 2 6 8 3 4 7 11 13 14 14 15 13 14 16 18 19 19 20 20 20 19 17 15 13 11 10 6 5 5 5 5 5 7 8 9 10 10 10 11 12 14 16 17
6 8 7 5 3 4 1 5 5 4 4 5 14 18 17 16 14 15 15 16 17 18 18 18 20 21 22 20 17 15 15 12 13 11 11 9 8 7 7 8 9 10 10 10 10 11 12 13 14
7 5 6 4 3 1 3 2 7 6 6 7 12 14 13 11 11 13 14 15 16 17 17 17 17 19 18 16 15 14 14 14 12 10 9 10 10 11 11 11 11 12 13 12 10 9 10 12 13
6 5 6 4 3 2 9 8 4 5 4 4 13 19 19 17 14 11 13 14 15 16 16 15 13 14 13 11 10 9 9 9 7 8 7 9 9 9 10 11 13 13 14 16 15 14 13 13 11
4 5 1 3 2 6 1 2 5 2 2 1 15 24 21 18 15 13 12 12 13 13 12 11 9 10 9 8 7 7 7 5 5 6 8 8 9 10 11 13 13 14 14 14 15 15 15 16 16
7 7 5 6 3 4 3 6 4 2 5 6 13 24 22 21 18 15 12 11 9 8 7 5 4 4 4 3 2 2 2 3 4 5 7 8 10 12 12 12 13 15 15 15 16 18 18 19 19
5 5 4 4 2 2 4 4 3 1 3 6 17 25 24 22 20 17 14 11 9 8 7 5 2 2 3 3 2 2 1 1 3 3 5 7 8 9 10 12 13 15 17 19 21 23 24 24 25
4 6 3 2 2 5 4 4 5 6 7 6 11 24 25 22 20 17 16 14 12 11 10 9 7 7 7 6 5 4 3 2 2 3 5 6 8 10 12 13 15 17 19 21 23 25 28 31 33
3 2 3 3 4 5 3 5 5 6 7 11 17 25 26 23 20 19 18 16 15 16 16 13 11 11 10 8 7 5 3 3 5 7 10 12 14 15 16 18 20 22 23 26 29 31 34 35 37
3 7 7 6 7 3 2 12 1 3 12 18 20 24 22 20 18 19 20 21 22 21 18 15 14 13 10 9 7 4 4 5 8 10 13 15 18 20 21 22 24 27 30 33 36 39 42 44 45

GFSSGP_850_spd_027.txt.gz
Wind_Speed
1 1 1 2 4 4 1 0 1 2 1 1 1 2 4 3 3 2 5 2 4 6 14 14 13 13 12 12 11 9 6 3 2 1 1 2 2 3 3 4 2 5 8 3 4 5 5 5 5
2 1 2 3 4 3 2 3 2 1 0 1 2 3 3 1 4 4 5 3 5 5 11 13 13 12 12 11 9 9 6 4 2 2 3 3 2 2 2 2 2 3 5 4 4 4 4 3 3
3 3 2 4 3 3 3 3 2 1 2 2 2 3 2 2 6 4 8 8 6 5 7 12 12 12 12 11 10 9 8 6 4 3 3 3 3 2 2 3 2 1 4 8 3 2 3 3 3
2 2 6 4 3 2 1 1 2 1 1 4 3 3 2 4 3 5 8 9 7 5 6 10 14 13 12 12 11 10 9 7 5 5 5 5 4 2 4 4 2 1 4 7 5 3 4 5 5
3 4 4 4 0 1 3 2 2 1 1 2 3 1 3 6 4 5 6 7 7 5 4 6 10 15 14 13 13 12 11 9 8 6 6 6 4 5 5 3 2 2 4 8 7 4 4 5 5
4 3 4 2 2 2 3 1 2 1 1 2 3 2 4 5 5 3 2 3 5 5 3 4 8 11 15 16 15 14 13 12 10 8 7 6 6 6 5 3 3 3 8 10 11 6 4 4 5
6 4 4 4 3 1 2 1 3 2 2 3 1 2 6 6 3 0 1 2 1 2 2 1 4 8 11 15 17 17 15 14 12 10 9 8 8 7 5 4 4 5 7 9 11 9 7 6 5
4 5 4 2 3 3 1 2 2 2 1 3 2 1 2 3 0 2 4 4 5 4 4 5 6 7 9 12 14 16 16 16 15 13 12 11 10 10 9 8 7 6 7 8 8 8 8 7 7
3 4 2 5 5 3 1 1 1 2 1 3 1 1 4 8 6 5 7 7 8 8 8 9 9 9 9 11 13 14 16 17 15 14 13 11 12 13 13 10 9 9 9 9 9 8 7 6 6
4 3 6 5 4 3 1 1 2 1 5 1 2 2 5 6 7 7 7 8 8 10 12 12 12 11 12 11 12 12 13 14 15 14 11 12 14 14 11 10 12 10 10 11 11 9 8 7 6
2 4 4 2 4 3 2 2 2 2 0 2 3 0 2 2 1 1 2 4 4 4 5 9 13 14 14 13 11 11 11 12 12 11 15 17 16 15 13 14 11 13 13 12 13 15 11 9 9
2 1 2 0 3 3 2 1 3 5 3 4 3 1 2 4 4 3 3 5 5 7 8 8 8 11 15 15 14 11 8 9 10 13 15 16 17 15 15 15 12 13 13 13 14 14 15 11 11
2 1 2 4 8 8 6 7 6 5 8 6 6 3 1 3 5 7 8 7 7 7 8 9 10 11 12 15 17 13 8 6 5 6 12 14 14 16 15 13 14 13 14 14 14 14 14 13 14
2 3 8 9 7 7 5 3 5 3 11 9 5 0 2 3 3 5 7 7 7 7 7 8 10 11 10 11 15 15 10 6 4 4 5 8 11 15 15 14 15 14 12 14 14 14 15 15 15
1 3 7 6 2 4 6 2 6 11 13 6 3 3 4 4 4 5 6 6 5 6 8 7 6 6 5 6 12 15 13 11 9 6 4 4 6 8 10 12 13 12 12 13 14 13 14 13 14
2 4 3 2 1 0 4 5 2 16 14 7 6 3 2 2 4 5 5 4 5 6 5 6 6 4 6 10 15 16 13 10 6 5 6 6 6 6 10 13 13 14 15 12 18 13 15 16 18
6 3 4 7 3 1 2 5 4 13 9 6 5 3 2 2 3 4 3 2 2 3 4 5 7 8 9 11 13 14 12 9 6 5 4 4 6 8 8 7 8 10 8 11 10 11 16 17 14
6 4 5 5 1 2 1 9 6 9 9 8 6 6 5 2 1 2 2 2 3 3 5 7 9 11 13 14 16 16 15 11 7 5 3 3 3 3 6 8 9 8 9 8 8 7 8 10 12
5 4 6 2 2 3 6 6 13 10 12 10 11 11 8 6 5 4 5 6 6 6 6 8 11 14 14 16 18 18 17 12 9 6 4 3 2 2 4 6 8 10 12 12 10 10 11 13 16
4 4 6 5 3 3 6 9 12 6 5 10 17 15 12 11 10 9 10 11 12 13 13 12 11 11 11 10 14 14 12 11 9 8 5 4 3 2 1 2 4 6 7 7 8 10 11 14 16
5 7 4 6 3 2 3 7 6 1 2 1 9 10 11 12 11 13 14 16 17 18 19 18 17 17 16 15 14 14 13 14 13 12 12 11 10 9 8 7 8 8 8 8 8 9 10 12 13
5 8 6 4 3 4 1 5 6 0 2 3 10 14 15 15 14 15 15 17 18 20 21 22 22 20 19 18 17 16 16 15 15 13 12 12 11 10 10 9 9 10 10 10 12 13 12 12 13
6 6 7 4 4 2 3 1 7 1 5 4 11 15 17 17 17 17 15 16 17 19 20 21 21 20 19 16 12 9 9 12 12 11 9 10 11 11 11 12 12 12 12 12 12 12 14 15 15
9 6 6 4 3 1 8 7 4 4 5 4 13 20 18 16 14 13 13 13 16 18 18 18 16 15 12 9 8 7 8 10 9 9 7 9 10 9 10 10 11 11 12 13 14 15 14 15 15
1 6 0 1 0 5 1 5 7 6 5 4 15 26 24 21 20 19 18 16 13 14 15 14 11 9 8 6 7 8 8 8 6 6 6 6 6 6 8 9 10 11 12 13 14 15 16 17 18
7 6 5 7 4 3 2 6 6 4 2 4 6 23 25 24 22 20 18 17 17 16 13 10 8 6 6 5 4 4 4 4 3 2 3 4 5 7 9 10 11 13 14 15 16 17 17 18 19
5 5 2 5 3 2 4 4 4 1 1 3 11 23 29 27 25 23 22 20 18 15 13 10 8 6 4 3 3 3 4 2 1 1 2 3 6 7 8 10 12 13 15 17 18 19 20 21 23
4 6 3 2 1 4 4 4 4 6 7 5 9 24 29 27 25 23 22 20 17 17 14 14 11 8 7 7 7 7 6 4 3 3 4 4 5 6 8 11 12 14 15 16 17 18 20 23 25
4 3 3 3 4 5 2 4 5 8 8 12 18 27 31 30 29 27 24 21 19 19 17 16 14 11 10 10 9 9 8 7 6 4 3 5 7 10 12 14 16 17 19 20 21 23 25 28 31
3 8 7 5 6 3 3 5 0 3 8 16 20 26 28 28 27 25 23 24 24 22 20 19 17 15 14 14 13 13 12 9 6 4 5 8 11 14 16 17 19 21 23 25 26 28 30 34 36

GFSSGP_850_spd_033.txt.gz
Wind_Speed
1 1 1 3 5 2 5 5 2 4 6 7 6 9 12 14 10 5 3 3 3 9 10 11 11 11 9 9 9 7 5 4 5 5 5 5 5 5 4 5 8 8 10 8 7 6 6 6 6
2 1 1 4 4 6 6 5 6 7 7 4 4 3 6 12 12 9 4 1 1 9 11 11 12 11 11 9 8 6 4 3 3 4 4 4 4 4 4 4 5 5 8 9 8 5 4 5 4
2 1 5 3 3 5 6 4 7 7 4 2 3 4 3 7 9 5 3 3 4 9 11 12 12 11 11 10 10 8 6 4 2 2 3 3 4 4 4 4 2 5 9 12 9 5 4 4 4
1 3 4 6 3 4 6 6 7 8 4 2 1 8 8 7 3 5 5 5 5 6 10 12 12 12 11 9 9 8 6 5 1 1 2 3 3 3 4 4 3 5 6 10 10 4 4 5 5
2 4 3 2 4 4 3 5 3 4 4 5 0 5 7 6 7 6 5 6 5 5 8 12 13 11 10 10 9 9 7 6 4 2 2 1 1 2 3 1 2 5 7 9 10 7 6 6 6
5 4 4 6 6 6 4 5 4 3 3 5 1 4 6 5 4 4 5 4 5 6 9 10 14 14 13 12 10 8 8 7 5 4 3 2 3 1 1 3 4 5 7 9 11 10 8 7 6
6 5 4 2 8 7 6 5 5 4 5 4 2 1 8 4 5 4 3 2 2 5 8 10 12 15 17 16 14 12 10 9 8 7 5 4 5 4 4 3 3 5 7 7 9 10 10 8 7
3 4 4 6 8 8 8 7 2 2 6 2 0 2 9 4 3 4 4 4 5 6 8 9 11 12 15 17 17 16 15 13 11 9 8 7 7 8 8 7 6 7 8 10 8 8 10 10 8
1 4 6 5 7 5 8 7 4 1 2 2 1 1 3 5 4 3 3 4 6 7 8 10 11 12 14 17 16 17 17 16 14 12 11 9 8 9 7 5 7 9 8 8 10 15 11 10 8
4 4 2 3 2 4 9 6 6 5 6 5 4 2 3 3 3 3 4 4 7 9 10 12 12 13 13 14 15 16 16 16 14 13 12 10 9 9 7 7 8 9 9 11 11 10 13 13 12
1 5 2 4 3 2 6 5 4 6 7 4 7 6 3 3 3 2 3 6 8 8 9 9 11 12 13 14 14 15 14 14 14 12 11 12 12 12 12 14 13 11 11 9 10 9 11 11 11
5 1 1 3 3 2 5 2 5 8 1 5 6 7 5 3 2 3 3 4 5 6 8 10 10 9 10 12 12 11 8 9 11 9 12 8 11 10 11 13 11 10 9 9 11 11 11 11 13
5 3 3 3 3 4 3 9 9 9 7 8 6 6 5 3 2 2 3 5 6 6 8 8 8 9 9 7 7 7 9 12 15 14 11 11 10 8 8 10 10 11 8 7 11 10 11 11 13
1 4 5 5 9 8 7 11 4 8 13 9 7 6 4 2 2 3 3 4 4 5 6 7 7 7 7 10 14 17 16 15 12 11 13 13 13 14 14 15 13 13 10 10 12 11 11 12 12
2 6 8 12 11 5 8 10 14 10 12 11 11 7 5 4 3 4 5 3 2 2 2 3 4 4 7 12 14 15 15 13 12 9 4 3 4 8 10 12 15 16 13 13 13 12 12 13 12
4 4 7 7 9 4 8 10 7 11 15 14 12 9 6 5 5 6 4 3 2 1 0 1 2 3 6 10 14 15 13 10 7 7 6 5 2 4 7 9 10 12 10 10 10 11 13 12 12
8 10 9 5 8 5 11 5 7 11 15 14 12 11 8 6 5 6 4 3 2 2 1 3 6 8 11 14 13 13 11 10 8 6 4 3 2 1 3 3 3 2 3 5 7 7 7 8 9
9 11 9 10 5 7 10 14 7 13 15 16 14 12 10 8 8 7 6 6 6 6 6 8 11 13 15 15 15 15 12 10 7 8 6 4 2 2 1 3 3 4 6 6 6 7 8 10 13
8 9 13 9 3 4 13 15 14 16 17 19 20 16 13 11 10 8 8 9 9 9 10 13 14 18 17 17 15 16 14 14 12 9 7 3 3 2 1 3 4 4 5 6 6 5 8 10 11
12 13 16 14 3 4 12 17 16 19 21 25 23 20 17 13 10 10 10 11 12 13 14 16 18 19 19 18 16 15 15 13 10 10 9 8 8 7 5 4 3 5 6 6 6 7 8 11 13
14 15 15 14 2 11 13 20 24 25 27 25 16 17 17 16 13 11 12 13 15 17 17 18 18 18 17 15 15 15 15 16 15 14 13 12 10 9 8 7 6 6 6 8 10 10 11 12 13
15 13 13 12 7 10 4 9 9 7 13 14 16 17 18 17 14 13 14 14 16 18 20 20 19 19 18 18 17 18 18 20 19 16 13 11 8 6 5 5 5 6 8 8 9 10 11 12 13
8 2 6 9 11 13 16 8 11 16 17 16 17 20 20 18 17 15 15 16 19 20 22 21 20 21 20 19 19 19 19 18 16 13 9 7 6 4 4 4 5 6 7 9 10 11 12 12 13
9 5 3 3 6 9 17 16 9 10 8 12 18 20 22 21 19 17 19 21 22 22 23 24 24 23 21 20 18 16 14 12 12 11 10 7 4 3 3 5 6 8 10 10 12 13 13 13 13
12 8 4 5 6 8 2 12 15 6 7 6 18 24 24 24 22 22 24 24 23 24 25 25 24 23 22 19 16 14 12 10 10 10 8 6 4 2 3 5 8 9 10 12 13 13 14 15 15
20 16 6 6 6 4 2 8 6 3 9 6 14 22 23 22 21 22 25 25 27 27 27 26 25 22 20 17 15 13 11 12 12 10 8 6 2 1 3 5 8 10 11 12 14 16 17 18 18
7 12 10 4 2 4 7 10 8 7 8 10 15 22 25 25 25 25 26 27 28 28 27 26 24 22 19 17 15 13 12 12 12 10 7 5 3 2 2 5 7 9 11 13 15 17 18 19 21
9 9 5 6 5 8 10 14 10 9 15 15 16 23 25 25 25 26 29 30 31 30 29 28 24 21 19 18 16 15 14 14 13 10 8 6 5 4 4 6 7 9 10 12 13 15 16 17 19
8 9 9 5 8 5 6 9 9 15 16 19 20 25 28 29 30 30 31 31 32 33 33 30 27 25 23 20 18 17 15 14 13 12 10 8 7 7 6 6 7 8 10 12 14 16 18 18 19
16 14 20 7 6 5 6 14 3 5 12 20 24 26 28 31 31 32 31 33 35 35 35 33 29 27 24 21 19 17 16 16 16 14 12 11 10 8 7 7 7 8 11 14 17 19 20 20 21

GFSSGP_850_spd_036.txt.gz
Wind_Speed
2 1 2 5 2 3 5 3 6 5 7 11 7 14 11 22 7 6 7 2 10 8 8 11 10 11 11 11 10 8 7 7 8 8 8 8 8 8 8 10 11 12 13 11 9 8 8 8 8
1 3 4 5 2 5 4 6 9 8 10 7 5 8 21 10 17 14 6 2 9 8 6 10 10 10 10 10 10 8 7 6 6 6 7 7 7 7 6 8 7 10 12 12 8 6 6 6 6
3 3 4 2 2 5 5 6 9 10 5 1 4 10 9 6 11 6 6 7 9 11 3 6 8 9 8 8 7 6 4 5 5 5 5 6 5 5 6 5 6 9 11 14 13 6 6 6 6
3 2 5 1 8 7 9 8 14 11 8 3 5 11 9 6 4 6 7 11 4 12 9 8 8 8 8 7 7 5 3 3 3 4 4 5 5 5 6 3 6 8 11 12 11 8 7 7 7
7 4 3 0 7 4 8 11 2 5 5 8 3 9 9 8 11 9 8 11 6 10 9 9 10 10 9 8 6 5 4 3 1 2 3 4 4 4 4 3 6 8 10 11 12 10 9 8 8
4 3 3 4 6 4 7 7 4 6 9 5 3 11 5 10 7 9 8 11 7 7 10 8 11 11 10 8 6 4 3 3 1 1 2 1 1 2 4 5 6 7 8 9 11 12 11 10 9
3 2 6 6 8 5 6 6 4 6 7 8 3 5 10 7 8 7 6 6 5 8 10 6 10 12 12 11 10 8 7 5 5 3 2 1 2 2 4 4 4 6 8 8 9 11 12 12 10
4 2 4 3 6 4 9 6 5 3 6 5 1 3 7 6 7 6 4 3 3 5 6 8 9 11 15 15 14 13 13 10 9 7 5 5 4 5 5 4 4 8 9 13 11 12 11 11 10
1 2 3 1 1 5 12 6 3 2 5 5 2 2 8 8 7 6 3 3 5 7 8 9 10 11 11 14 15 16 16 14 12 9 8 8 7 5 6 1 6 10 8 8 10 13 11 10 9
2 2 6 8 9 4 10 7 12 4 8 6 4 4 5 6 8 8 11 10 7 6 8 10 11 12 11 12 14 12 11 13 11 11 11 8 6 6 4 2 6 9 10 11 9 10 12 14 12
1 2 4 7 9 10 9 2 3 4 4 4 13 10 7 7 9 9 8 8 7 7 8 9 10 12 13 13 11 8 10 11 9 9 8 8 8 7 6 6 9 12 12 10 9 10 11 13 15
4 2 5 4 2 3 3 1 2 8 3 6 13 9 9 8 7 6 5 5 6 7 8 7 7 6 7 10 11 8 8 11 14 11 11 7 6 6 5 5 5 11 10 10 9 11 11 10 10
4 4 1 2 1 2 3 4 6 6 9 8 10 10 11 9 5 5 5 5 6 8 9 8 8 7 6 9 11 12 12 13 14 14 9 9 6 6 4 4 6 8 8 9 10 9 10 12 12
5 3 5 5 5 4 2 6 6 6 16 11 10 11 11 9 7 6 6 5 5 7 6 6 7 9 12 13 14 14 16 13 11 10 10 9 8 8 7 8 11 11 11 9 9 11 9 9 10
2 4 7 13 10 2 4 7 10 13 14 12 12 12 11 10 9 8 6 4 4 4 4 4 6 9 11 13 15 14 14 15 12 11 9 9 8 8 5 7 8 10 11 9 10 11 10 11 11
3 3 3 4 15 5 5 7 9 19 17 15 15 13 13 11 10 8 5 5 5 4 5 5 6 7 10 13 14 16 16 13 11 8 7 9 6 5 3 4 6 6 6 5 4 4 7 8 9
5 5 7 4 13 6 7 5 5 9 13 15 17 16 14 12 11 8 7 7 7 6 7 6 6 8 12 16 17 17 15 13 12 9 8 8 8 6 6 4 1 1 1 1 3 4 6 7 7
5 5 6 5 7 5 7 11 6 14 17 19 20 20 18 15 13 10 9 8 9 8 7 7 10 12 16 15 16 16 15 13 12 10 11 9 8 6 4 2 3 1 3 3 3 4 4 6 7
9 6 8 6 4 4 9 9 11 22 21 20 24 25 22 18 17 12 12 11 11 10 9 11 14 16 16 17 16 16 15 14 12 14 10 8 6 6 5 4 4 4 4 4 4 6 6 6 9
9 7 9 7 8 2 7 12 10 10 23 32 31 28 27 23 18 14 13 13 13 11 12 14 17 19 20 19 17 16 16 16 15 13 11 11 10 10 8 7 7 7 8 8 8 8 10 12 13
6 7 7 7 4 4 5 8 13 13 28 30 31 29 29 29 22 17 15 15 15 16 17 18 19 19 19 17 17 16 17 17 16 16 16 15 12 11 9 8 7 7 7 8 9 10 11 12 12
7 4 11 5 3 4 7 6 8 8 12 17 26 27 25 25 20 19 18 18 19 20 21 22 23 20 18 16 16 17 17 19 20 19 18 16 13 9 7 6 6 6 7 7 8 9 10 10 10
4 6 3 2 5 4 4 6 7 15 16 12 19 25 23 25 25 23 21 20 21 21 23 24 23 22 21 21 20 18 19 20 20 18 15 13 11 8 5 4 4 6 6 8 9 9 11 12 12
9 5 2 1 1 5 13 12 6 12 15 7 18 27 28 27 26 24 23 24 24 26 26 24 24 23 23 21 19 18 19 19 18 16 14 11 7 5 4 3 3 6 7 9 10 12 13 13 13
4 6 2 2 1 7 2 9 15 5 2 3 17 27 30 31 29 28 29 27 26 27 28 28 27 27 25 23 22 22 20 17 14 13 11 9 6 4 3 2 3 5 7 9 10 12 13 14 15
10 8 5 6 4 4 4 7 6 3 9 6 23 29 30 31 31 31 29 29 30 31 30 30 30 29 27 26 24 23 20 17 15 12 11 8 6 5 3 1 2 5 6 8 10 12 13 15 16
5 7 9 3 2 1 6 7 6 5 4 3 21 29 31 33 34 33 32 33 32 33 33 32 32 30 29 27 24 22 19 16 14 13 11 9 8 6 4 2 1 4 6 8 10 12 14 15 17
4 6 3 1 2 6 6 11 8 6 11 9 14 26 31 34 34 34 35 35 34 33 32 33 32 31 29 26 24 21 18 16 15 14 12 11 10 7 5 4 2 3 5 8 10 12 14 15 16
4 4 5 4 4 4 4 7 3 15 16 19 18 28 33 37 38 37 36 35 34 34 35 35 34 33 30 27 25 22 19 17 15 15 14 13 11 9 7 6 4 4 5 7 9 11 13 15 17
3 8 10 5 6 7 2 19 2 4 12 21 25 28 32 36 37 38 39 39 38 39 39 38 37 34 31 28 26 22 19 18 17 17 16 14 13 11 10 8 6 6 6 8 10 12 14 16 18

GFSSGP_850_spd_042.txt.gz
Wind_Speed
2 1 1 2 4 5 2 1 1 1 4 10 15 15 11 7 2 4 10 8 8 11 13 12 12 13 13 12 11 11 10 11 10 11 10 10 10 13 13 15 16 17 15 11 11 11 10 10 10
2 1 1 3 5 4 3 3 4 3 16 24 20 16 11 4 8 12 7 9 8 11 12 12 12 12 11 11 9 9 9 9 9 9 9 8 9 10 12 15 15 17 17 14 13 12 11 10 9
3 3 3 4 4 4 5 4 6 10 20 4 6 11 5 3 8 9 8 12 11 10 14 12 12 12 11 10 9 8 8 8 7 8 7 7 7 9 11 13 14 16 18 16 14 14 13 11 10
2 3 5 5 3 1 7 6 7 7 5 7 16 8 7 4 5 11 11 14 12 11 14 13 13 13 12 11 9 8 7 6 6 5 5 7 7 8 10 12 14 15 15 16 15 14 13 11 9
5 5 5 4 3 3 1 9 13 4 4 8 5 4 7 12 14 14 13 13 12 13 13 12 12 12 11 11 9 7 6 6 5 5 6 6 7 8 9 11 12 13 13 14 14 14 13 11 9
4 3 5 2 2 2 3 10 9 5 8 9 11 10 7 12 12 15 16 14 14 15 13 12 13 13 13 11 10 8 7 6 5 4 5 5 6 6 6 6 8 10 10 10 11 11 12 12 11
6 4 4 4 4 3 4 8 10 8 9 4 14 5 10 15 13 15 14 13 16 17 17 17 14 14 13 13 12 10 9 8 6 5 4 3 3 3 4 5 8 9 11 11 9 9 10 11 10
4 5 3 3 6 4 5 5 8 11 4 10 8 7 8 21 19 17 16 14 14 16 14 16 18 18 15 14 14 13 11 10 8 6 5 4 3 2 1 4 8 11 15 12 13 11 10 11 10
3 4 1 0 6 4 8 4 5 7 10 5 5 9 9 23 21 19 17 16 15 15 15 13 15 18 18 18 17 16 14 12 10 9 7 5 5 4 4 6 6 6 10 10 12 14 15 13 11
4 4 4 2 3 5 11 7 9 6 8 4 8 12 19 22 21 20 19 17 16 16 15 15 14 14 13 14 17 16 15 16 13 11 10 9 8 7 9 8 5 4 6 6 8 10 12 13 12
3 4 3 1 0 6 7 5 7 10 3 10 15 19 22 23 22 20 19 16 15 16 17 16 16 16 16 16 17 15 17 18 19 17 14 10 10 11 14 8 5 5 3 3 1 4 6 8 8
3 1 3 3 1 5 7 6 5 8 5 10 12 18 22 23 23 22 18 16 15 15 15 16 17 17 18 17 17 21 16 15 17 16 12 14 13 11 17 8 7 5 1 1 2 3 2 3 3
2 1 2 3 3 5 4 5 4 7 10 9 15 21 20 21 21 20 19 17 16 15 14 15 15 16 18 20 19 17 17 17 16 16 13 13 12 14 12 10 7 4 1 1 2 2 6 5 5
3 1 4 5 5 5 5 3 4 7 14 15 20 21 21 21 22 22 21 18 17 15 15 15 16 17 18 19 19 18 17 17 17 16 13 13 14 15 14 12 9 6 4 2 3 5 6 3 3
1 3 4 7 6 4 5 5 9 14 20 22 23 22 22 22 23 22 19 18 17 16 15 15 16 17 19 19 20 17 16 18 18 17 18 15 15 14 14 12 10 7 6 5 6 7 5 4 4
2 3 2 3 9 4 6 7 4 12 25 25 25 24 24 25 24 23 22 20 18 17 16 15 16 17 18 20 21 19 18 17 17 18 18 17 16 15 13 11 9 7 7 7 8 6 1 0 0
4 3 4 7 8 4 5 6 4 7 27 27 27 26 27 26 27 26 25 23 20 19 18 17 17 18 19 22 22 22 20 19 17 15 17 15 15 14 11 9 8 8 7 6 5 3 3 3 3
6 4 5 5 4 2 3 11 6 9 22 27 28 28 30 31 32 28 28 26 23 21 20 18 18 19 22 22 24 23 22 20 18 15 15 15 14 12 11 10 9 9 7 5 6 6 6 6 6
4 4 4 3 4 5 8 9 11 18 21 25 27 32 35 35 30 29 29 27 25 23 21 19 20 22 24 26 27 26 24 22 19 17 13 16 15 13 13 10 11 10 9 10 9 8 8 8 7
4 4 7 6 4 6 7 11 10 9 15 31 36 37 40 38 35 35 34 31 27 24 22 21 21 22 25 25 27 26 25 24 21 18 17 18 17 15 14 13 13 13 12 11 10 8 6 7 5
6 7 5 8 1 3 3 7 10 11 23 31 35 41 41 46 43 42 40 36 30 28 26 24 23 24 26 29 30 29 27 25 24 23 21 20 18 17 16 15 15 14 11 8 6 5 5 5 6
7 7 6 4 2 5 3 8 5 6 11 10 33 36 44 43 45 44 42 38 34 31 26 25 25 28 29 31 30 29 30 30 27 25 23 21 21 21 20 17 14 11 8 6 5 4 2 3 3
7 4 4 2 3 2 3 4 6 4 8 15 28 31 39 41 47 48 47 40 35 31 30 28 29 30 31 31 29 30 30 27 27 26 25 26 26 23 20 15 12 9 7 5 3 3 4 4 5
5 5 6 4 3 4 9 8 5 7 12 8 15 21 29 36 43 46 47 42 36 33 32 31 32 32 32 31 31 30 30 29 30 30 30 30 28 24 19 15 12 9 5 3 2 2 3 5 7
4 7 2 3 1 8 2 5 14 9 10 11 15 23 16 27 38 43 48 45 40 38 36 36 36 36 34 33 32 32 31 29 29 31 33 32 28 23 19 15 12 8 5 3 2 2 4 6 8
8 8 6 7 5 5 1 7 6 13 22 16 28 30 22 21 31 40 45 46 42 39 38 39 38 38 36 35 34 33 31 31 31 33 33 29 24 21 18 15 12 9 6 4 3 1 2 4 7
6 8 4 1 1 1 6 8 7 10 10 16 25 18 18 23 29 36 43 43 40 38 39 40 39 39 38 36 34 34 33 32 34 34 30 26 23 21 18 15 12 10 7 6 4 2 1 3 6
6 8 2 2 2 6 6 6 8 5 12 14 13 18 19 23 30 35 40 40 38 37 38 39 39 39 37 37 36 35 34 33 35 34 31 28 24 21 19 17 15 12 10 8 6 4 1 3 5
3 5 4 5 5 5 2 7 7 13 12 12 14 29 27 25 32 37 39 38 36 36 37 39 41 41 40 39 38 37 35 36 37 34 31 27 24 22 20 18 16 14 12 10 8 6 2 2 4
1 4 7 5 6 6 3 18 5 5 6 11 18 21 23 27 29 34 36 36 36 37 39 41 42 42 42 40 39 37 37 40 38 34 31 28 25 23 21 20 18 17 15 12 10 8 5 4 5

GFSSGP_850_spd_045.txt.gz
Wind_Speed
2 1 0 1 4 6 1 1 2 1 3 3 6 5 7 6 2 3 15 9 6 10 12 12 12 12 12 11 10 11 11 11 11 11 11 12 14 15 17 17 18 16 14 13 13 11 11 9 8
2 1 1 3 5 4 4 3 4 3 13 19 14 8 7 2 4 9 9 9 11 11 11 11 11 11 10 10 9 9 9 9 10 10 10 11 12 14 16 17 18 18 16 14 13 12 10 8 6
4 1 1 4 4 4 5 3 4 12 17 3 6 8 4 5 9 8 9 13 12 13 13 12 12 11 11 10 9 9 8 8 8 7 8 9 10 12 15 16 16 16 17 17 15 13 11 9 7
3 1 5 5 3 3 5 6 5 11 3 3 12 7 4 6 8 10 11 13 11 13 13 12 13 12 11 9 8 7 6 5 4 5 6 7 8 10 12 14 15 15 15 15 15 14 13 11 9
3 3 5 4 3 1 2 9 15 6 4 7 4 5 4 7 9 11 13 14 12 13 14 13 12 12 12 10 9 8 6 5 4 4 5 6 7 7 9 11 12 13 13 12 11 12 12 11 10
3 3 5 2 1 2 0 10 8 5 4 8 7 9 6 10 10 12 14 15 12 13 13 14 13 13 12 12 10 9 7 6 5 5 5 4 5 5 7 9 11 13 13 11 10 11 11 11 11
6 4 4 6 4 1 4 10 8 8 7 2 13 5 7 14 13 14 15 15 16 16 16 15 14 15 14 13 12 10 9 8 7 6 7 5 4 3 5 6 9 11 15 12 10 10 11 11 10
4 5 4 3 6 5 6 6 10 12 3 13 6 6 7 22 18 17 16 15 18 19 18 18 18 17 15 15 13 12 11 9 8 6 5 4 4 3 4 5 7 11 16 19 16 15 12 11 11
4 5 3 6 7 4 8 4 7 6 12 8 9 6 6 25 23 21 20 19 19 20 19 18 19 19 18 16 15 14 13 12 11 9 8 6 5 4 4 5 4 7 9 13 13 13 14 13 12
5 4 8 6 5 4 7 6 12 7 8 5 8 11 12 25 25 23 22 21 20 20 20 19 20 21 20 19 17 14 14 13 13 11 9 7 6 5 7 7 3 2 5 6 7 8 10 11 10
3 4 5 3 3 5 7 4 7 9 4 12 16 16 21 26 25 24 22 20 19 19 20 19 19 19 19 19 19 18 17 16 16 14 12 9 8 8 10 9 5 3 2 2 3 4 5 6 7
3 1 2 2 1 5 5 4 5 14 7 10 11 16 22 26 26 26 24 23 21 20 20 20 21 21 20 20 19 21 21 22 20 18 15 13 12 12 12 14 7 5 5 3 2 2 1 5 4
2 1 1 3 3 3 4 5 6 12 14 9 13 21 23 24 24 23 22 22 22 21 20 21 21 21 22 22 22 21 21 19 18 19 17 15 15 13 19 14 8 7 6 4 2 1 1 2 1
1 0 3 3 4 4 4 4 3 10 15 13 17 22 24 25 24 25 26 25 23 21 20 20 20 21 21 22 22 22 22 19 17 17 18 17 16 16 17 14 11 10 6 5 2 2 3 1 1
2 3 5 5 6 3 5 6 10 18 13 17 20 23 25 25 26 26 24 24 22 21 21 21 21 21 22 21 22 21 19 19 19 19 19 17 17 17 17 16 14 12 8 7 5 6 3 2 0
3 5 3 2 6 2 6 8 9 18 19 22 23 25 26 27 27 26 26 26 25 24 22 21 21 21 22 21 23 21 20 21 20 21 20 19 17 19 18 18 15 12 9 9 9 8 5 3 3
6 3 4 8 9 3 5 6 3 7 18 24 27 27 29 29 29 29 29 28 27 25 24 22 20 20 21 23 25 23 22 22 21 22 22 23 22 22 20 17 13 10 10 10 8 8 6 5 7
6 4 4 5 3 3 3 12 9 8 15 27 27 30 32 33 34 30 31 31 30 28 26 24 21 21 23 25 27 25 24 24 21 22 22 24 24 22 18 14 12 11 10 10 10 9 10 9 8
5 4 5 4 3 4 7 10 13 15 17 22 27 30 35 37 33 32 33 33 33 32 29 26 25 24 26 28 28 29 28 25 24 21 18 20 20 19 17 15 13 13 12 10 11 12 11 13 11
2 3 6 5 4 5 8 12 11 7 14 31 35 36 40 40 40 37 38 38 37 35 32 29 27 26 27 29 29 29 28 27 24 22 18 17 20 19 16 15 14 15 14 14 13 9 10 11 11
5 6 5 8 3 3 5 8 9 11 22 30 32 41 42 45 46 44 43 43 39 38 36 32 29 27 28 31 30 30 30 28 28 25 21 22 21 19 18 16 17 18 16 14 12 10 7 7 8
6 8 6 5 2 4 2 6 6 6 11 9 33 38 46 48 47 44 45 47 44 41 37 33 30 29 31 31 32 31 33 34 30 26 22 24 22 20 19 20 20 19 17 14 12 11 8 6 4
7 4 6 2 3 3 4 4 4 1 8 13 24 41 41 40 41 44 44 47 46 43 39 35 32 32 31 32 31 31 32 30 29 27 25 26 24 23 24 23 21 19 16 13 10 7 5 4 1
7 5 5 4 2 4 9 9 6 7 9 6 21 36 31 26 29 33 35 39 48 43 39 36 35 34 33 34 34 33 32 32 33 31 30 29 28 28 28 25 21 18 14 11 8 6 4 2 1
4 6 2 4 1 8 4 5 18 9 10 13 15 30 27 19 18 22 29 36 44 46 42 40 38 37 36 36 35 35 34 33 32 31 32 32 33 34 30 26 21 17 14 10 7 5 3 1 1
8 8 6 7 4 5 3 7 6 10 20 25 29 34 31 27 21 23 25 31 38 45 44 42 40 39 39 38 37 36 35 34 34 31 32 33 34 33 30 26 21 17 14 10 7 6 3 1 1
5 6 4 1 2 2 6 9 8 11 13 15 28 25 28 22 20 22 25 27 34 44 46 43 41 41 40 39 38 38 37 36 35 34 33 34 35 33 29 25 21 18 15 11 8 7 4 3 2
6 7 3 2 2 5 6 7 8 6 9 15 11 24 27 20 17 19 22 25 30 39 43 42 41 41 40 40 41 40 39 37 36 36 35 37 37 34 30 27 23 19 16 13 11 9 7 6 4
4 5 2 4 5 5 3 9 8 14 10 10 12 26 22 17 16 17 19 22 26 35 42 41 41 41 41 43 42 41 39 38 37 37 38 40 38 35 31 27 24 21 18 16 14 12 10 9 7
2 1 9 4 6 5 2 18 3 8 10 12 20 16 12 11 12 14 18 22 26 34 40 41 40 42 43 44 42 41 38 38 39 40 42 42 39 35 31 28 25 23 20 18 16 14 13 11 9

GFSSGP_850_spd_048.txt.gz
Wind_Speed
3 2 1 1 4 5 0 2 1 4 1 2 6 3 5 4 3 3 19 12 11 12 13 12 12 12 12 12 12 12 12 12 11 11 12 15 17 18 18 18 17 15 14 14 12 11 11 12 12
2 1 1 3 5 4 4 3 5 4 10 17 12 6 3 2 4 11 13 11 12 13 13 13 12 11 10 10 10 10 10 10 10 10 12 14 16 18 19 18 18 17 15 14 12 11 11 10 12
3 0 0 4 4 4 4 4 5 8 14 4 5 4 3 4 10 12 10 13 16 14 13 13 13 12 10 9 8 8 7 7 8 9 10 12 14 16 18 17 17 16 16 16 14 13 11 11 10
4 1 5 4 2 3 3 5 5 10 3 4 9 5 4 5 9 9 13 14 15 14 13 13 13 12 11 9 8 7 6 6 6 7 8 10 11 13 16 17 17 16 16 15 14 13 13 12 11
3 2 4 4 2 1 3 7 15 5 2 6 5 5 4 8 7 10 14 15 13 15 14 13 13 12 11 10 8 6 5 4 4 5 6 7 9 12 15 16 16 16 15 14 13 14 13 13 12
2 3 5 2 2 2 2 9 8 5 5 7 5 9 6 10 12 12 15 16 13 14 15 14 13 13 12 10 9 7 5 4 4 5 5 6 7 9 11 13 16 17 16 14 14 13 12 11 11
6 4 4 5 3 1 4 11 5 8 7 6 9 6 5 15 16 15 16 16 14 15 15 15 14 14 13 12 11 9 7 6 5 4 3 4 4 6 7 10 13 17 18 16 14 14 13 13 13
4 6 4 3 5 4 5 10 5 9 4 9 9 5 4 19 18 18 17 16 15 16 17 16 15 14 14 13 12 11 9 8 7 6 5 4 3 4 4 7 9 13 15 15 15 15 14 12 12
3 5 3 7 7 4 9 4 6 5 7 11 8 6 5 19 20 20 20 19 19 18 18 18 18 18 16 15 13 12 11 10 9 8 7 5 4 3 4 4 5 7 10 11 12 13 14 12 12
4 4 8 6 5 3 7 5 12 5 7 8 9 11 9 18 22 23 23 21 22 21 21 19 19 19 18 15 14 12 11 11 10 9 7 6 5 4 4 4 1 3 4 5 6 8 10 10 11
3 4 5 3 2 3 6 4 9 7 4 12 16 16 14 20 24 23 22 21 20 20 21 21 21 20 20 19 18 16 15 15 13 11 11 10 8 7 7 7 5 2 1 1 3 4 5 6 7
3 2 2 2 0 3 4 4 5 13 9 6 15 13 16 22 25 25 24 23 22 22 21 21 21 20 20 21 21 19 20 18 16 16 15 15 11 9 10 12 9 4 3 4 3 4 2 3 4
3 0 1 1 1 1 3 5 7 12 18 11 9 15 18 21 23 23 23 23 23 23 21 21 21 22 22 23 23 22 22 23 21 19 18 19 15 14 11 16 13 6 5 5 4 3 2 3 3
3 1 1 2 2 3 2 2 2 6 17 15 15 17 20 22 22 24 26 26 26 24 23 22 22 23 24 24 25 24 22 23 22 20 21 21 18 15 15 21 14 8 8 7 5 4 1 5 4
3 1 4 3 3 2 4 6 11 22 13 14 18 20 23 25 26 27 24 25 25 24 24 23 23 23 23 24 24 26 23 23 21 20 21 23 22 20 18 19 15 12 10 8 9 7 7 5 6
4 5 2 2 5 2 5 8 12 9 23 21 20 21 25 27 29 28 27 26 26 27 26 24 24 23 23 23 22 24 23 25 20 22 22 22 21 20 21 20 18 15 12 10 11 10 8 7 7
6 2 3 7 8 3 4 6 4 4 9 20 24 25 27 28 30 30 29 28 29 28 27 26 25 24 23 23 23 25 23 22 22 23 23 22 21 21 21 21 19 18 14 14 13 10 8 10 10
5 3 4 4 2 2 4 11 11 16 11 19 21 25 30 32 35 31 31 30 31 31 30 29 27 25 24 23 25 26 24 24 23 23 22 22 22 21 23 19 20 17 16 16 14 12 12 11 11
5 3 4 4 3 3 7 9 11 22 18 26 30 27 31 35 32 33 33 33 34 35 35 33 31 28 26 26 27 30 28 27 25 25 23 25 25 26 26 22 20 17 16 15 15 15 15 17 14
2 3 6 5 3 2 8 14 13 9 16 28 33 36 38 37 36 35 35 38 39 38 37 35 33 32 29 27 28 31 29 28 26 25 24 25 26 28 25 22 19 19 19 17 17 16 19 17 15
5 6 5 6 4 4 5 8 8 8 20 29 35 38 39 43 43 43 40 41 42 42 40 38 36 34 31 29 31 33 30 29 30 29 28 25 23 25 24 21 20 20 18 18 18 17 13 14 15
5 7 5 3 2 4 1 6 7 7 9 9 31 37 45 46 47 45 43 43 46 45 41 40 38 37 34 32 33 34 35 35 35 30 27 23 25 26 25 24 22 21 22 21 19 18 14 12 11
6 4 6 3 3 3 1 2 5 2 8 14 21 38 39 40 37 38 38 38 39 44 46 43 41 39 36 35 35 36 34 33 30 30 29 25 27 28 26 25 24 25 25 22 18 17 15 13 10
8 6 6 4 2 5 11 8 7 6 9 6 17 34 35 31 25 24 23 24 29 35 44 45 42 40 38 36 35 35 35 34 35 34 33 30 30 30 28 27 28 27 25 22 20 18 16 13 11
3 6 2 3 1 9 3 4 16 6 10 9 15 33 25 20 17 15 16 18 22 28 36 45 44 43 40 38 36 36 35 34 33 35 34 32 32 32 31 32 32 29 26 24 21 18 15 12 9
9 8 6 7 4 5 3 8 8 10 16 24 26 33 31 25 22 20 19 19 22 25 30 41 45 43 41 39 38 37 35 35 35 34 35 32 32 32 33 34 33 30 27 24 20 17 14 11 9
6 8 3 1 2 3 5 8 9 8 12 16 28 25 29 22 17 16 15 16 18 22 26 36 44 44 42 40 39 38 37 38 38 36 35 34 31 35 37 38 35 32 28 24 20 16 14 12 10
4 6 3 2 3 5 6 7 7 7 9 12 9 23 30 22 15 13 12 13 15 18 21 29 41 44 42 41 40 39 39 38 38 38 36 35 34 38 41 41 37 33 29 25 21 18 16 13 10
3 4 1 4 5 5 3 9 8 10 12 9 10 13 10 10 8 6 8 12 15 17 20 26 37 43 43 41 40 40 42 39 39 38 37 37 38 41 43 42 38 34 30 27 23 19 17 14 12
1 5 7 4 5 4 2 15 5 8 7 8 17 12 7 5 4 6 5 9 15 17 19 25 34 41 43 41 40 41 42 40 40 40 39 39 40 43 44 42 39 35 30 27 24 21 18 16 13